This is the latest recevied weather packets stored in our database for station/object DM8MH-13. If no packets are shown the sender has not sent any weather packets the latest 10 day(s).
| Time | Temp. | Humidity | Pressure | Rain* | Wind** | Luminosity | Snow |
|---|---|---|---|---|---|---|---|
| 1777960272 | 13.89° C | 92% | 1009.5 hPa | 0 mm | - | 68 W/m² | - |
| 1777959673 | 13.89° C | 92% | 1009.5 hPa | 0 mm | - | 62 W/m² | - |
| 1777959073 | 13.89° C | 92% | 1009.6 hPa | 0.25 mm | - | 50 W/m² | - |
| 1777958473 | 13.89° C | 92% | 1009.5 hPa | 0.51 mm | - | 37 W/m² | - |
| 1777957873 | 13.33° C | 92% | 1009.4 hPa | 0.51 mm | - | 31 W/m² | - |
| 1777957272 | 13.33° C | 92% | 1009.5 hPa | 0.51 mm | - | 27 W/m² | - |
| 1777956672 | 13.33° C | 92% | 1009.5 hPa | 0.51 mm | - | 28 W/m² | - |
| 1777956072 | 13.33° C | 91% | 1009.5 hPa | 0.51 mm | - | 20 W/m² | - |
| 1777955473 | 13.33° C | 91% | 1009.8 hPa | 0.25 mm | - | 16 W/m² | - |
| 1777954873 | 13.33° C | 91% | 1010 hPa | 0 mm | - | 3 W/m² | - |
| 1777954273 | 13.33° C | 91% | 1009.9 hPa | 0 mm | - | 0 W/m² | - |
| 1777953672 | 13.33° C | 91% | 1010 hPa | 0 mm | - | 0 W/m² | - |
| 1777953072 | 13.33° C | 91% | 1010 hPa | 0 mm | - | 0 W/m² | - |
| 1777952473 | 13.33° C | 91% | 1009.9 hPa | 0 mm | - | 0 W/m² | - |
| 1777951873 | 13.33° C | 91% | 1009.8 hPa | 0 mm | - | 0 W/m² | - |
| 1777951273 | 13.33° C | 91% | 1009.8 hPa | 0 mm | - | 0 W/m² | - |
| 1777950672 | 13.33° C | 91% | 1009.7 hPa | 0 mm | - | 0 W/m² | - |
| 1777950073 | 13.33° C | 91% | 1009.9 hPa | 0 mm | - | 0 W/m² | - |
| 1777949473 | 13.33° C | 91% | 1009.9 hPa | 0 mm | - | 0 W/m² | - |
| 1777948872 | 13.33° C | 91% | 1010.2 hPa | 0 mm | - | 0 W/m² | - |
| 1777948273 | 13.33° C | 90% | 1010.3 hPa | 0 mm | - | 0 W/m² | - |
| 1777947672 | 13.33° C | 90% | 1010.4 hPa | 0 mm | - | 0 W/m² | - |
| 1777947073 | 13.89° C | 90% | 1010.4 hPa | 0 mm | - | 0 W/m² | - |
| 1777946472 | 13.89° C | 90% | 1010.4 hPa | 0 mm | - | 0 W/m² | - |
| 1777945872 | 13.89° C | 90% | 1010.5 hPa | 0 mm | - | 0 W/m² | - |
* Rain latest hour (hover to see other rain measurements)
** Current wind speed in m/s (hover to see current wind gust speed)